Location: Abraham Lincoln Continuation High School
(33.9711°N, 117.3662°W)
Time: 04:17:15
(UTC+00:00)

Ariane Rocket - Pass Details

Date: 21 September 2020
Orbit: 760 x 769 km, 98.7° (Epoch: 25 October)

Event Time Altitude Azimuth Distance (km) Brightness Sun altitude
Exits shadow 02:56:55 23° 103° (ESE) 1,571 4.0 -15.0°
Maximum altitude 02:58:40 29° 69° (ENE) 1,383 3.9 -15.4°
Drops below altitude 10° 03:02:59 10° 11° (N) 2,306 5.5 -16.2°
Sets 03:05:32 0° 0° (N) 3,238 6.4 -16.8°
